YLIS

Details ICAO YLIS (LSY)
Name Lismore
Region Australia
Timezone Australia/Sydney (UTC+10.0)
Plans Departing 9
Arriving 7
Stats Elevation 35 ft / 11 m (AMSL)
Location -28.830852° 153.258464°
Runways 1
Magnetic Variation 11.471° E
Sunrise 2018-05-26 20:30:41 UTC / 2018-05-27 06:30:41 Local
Sunset 2018-05-27 07:00:20 UTC / 2018-05-27 17:00:20 Local
Advertisement - Login to hide

Runways

ID Width Length Bearing (true) Bearing (mag) Surface Threshold Offset Overrun Length
15 98 ft / 30 m 5,421 ft / 1,652 m 157.30° 145.83° Asphalt 0 ft / 0 m 0 ft / 0 m
33 98 ft / 30 m 5,421 ft / 1,652 m 337.30° 325.83° Asphalt 0 ft / 0 m 0 ft / 0 m

Map

Weather


0- 5 10 15 20 25 30 35+ Temperature / ° C

Clouds and Precipitation
Forecast for 2018-05-27 00:00 UTC. Updated an hour ago

Ground ~20,000 ft ~40,000 ft Winds

METAR

YLIS 270000Z AUTO 19005KT 9999 // SCT022 OVC061 18/14 Q1028

TAF

Not found

Frequencies

Unicom 119.60 MHz ACTIVATE LIGHTS ONLY MULT
Tower 120.30 MHz BRISBANE CNTR
Unicom 124.20 MHz LISMORE MULT
Warning: Do not use this data for real-world aviation or navigation. No guarantee of current accuracy is given.